W2CJS Weather Reports


Display with metric or nautical units.
time (UTC)temp
F
wind
direction
speed
MPH
gust
MPH
rain 1hr
in
rain 24hr
in
rain mn
in
humidity
%
barometer
mb
20260510134003 43 226 1.0 5.0 0.02 0.18 0.18 91 1011.0
20260510133003 43 214 2.0 6.0 0.02 0.18 0.18 91 1010.8
20260510132003 43 215 0.0 2.0 0.02 0.18 0.18 92 1010.8
20260510131004 42 197 1.0 4.0 0.01 0.17 0.17 89 1011.0
20260510130024 43 169 0.0 1.0 0.01 0.17 0.17 91 1010.6
20260510125003 43 169 0.0 2.0 0.00 0.16 0.16 91 1010.4
20260510124003 43 88 0.0 4.0 0.00 0.16 0.16 90 1010.1
20260510123003 43 50 2.0 7.0 0.02 0.16 0.16 89 1009.9
20260510122005 44 332 2.0 5.0 0.07 0.16 0.16 89 1009.8
20260510121003 46 322 2.0 7.0 0.08 0.16 0.16 90 1009.3
20260510120003 48 277 1.0 6.0 0.08 0.16 0.16 94 1009.0
20260510115003 48 225 2.0 3.0 0.08 0.16 0.16 95 1008.8
20260510114003 48 225 1.0 3.0 0.07 0.15 0.15 94 1008.7
20260510113003 48 221 2.0 5.0 0.06 0.14 0.14 94 1008.5
20260510112003 48 220 2.0 4.0 0.01 0.09 0.09 94 1008.5
20260510111024 48 219 2.0 5.0 0.00 0.08 0.08 95 1008.3
20260510110024 47 219 2.0 3.0 0.00 0.08 0.08 96 1008.2
20260510105003 46 219 0.0 3.0 0.00 0.08 0.08 95 1008.0
20260510104003 46 0 0.0 0.0 0.00 0.08 0.08 95 1007.5
20260510103003 46 0 0.0 0.0 0.00 0.08 0.08 95 1007.6
20260510102003 45 0 0.0 0.0 0.00 0.08 0.08 95 1007.7
20260510101003 45 0 0.0 0.0 0.00 0.08 0.08 95 1007.6
20260510100003 44 0 0.0 0.0 0.00 0.08 0.08 95 1007.5
20260510095003 44 0 0.0 0.0 0.00 0.08 0.08 95 1007.4
20260510094003 44 0 0.0 0.0 0.00 0.08 0.08 95 1007.2
20260510093003 44 0 0.0 0.0 0.00 0.08 0.08 95 1007.2
20260510092003 44 0 0.0 0.0 0.00 0.08 0.08 95 1007.0
20260510091003 43 0 0.0 0.0 0.00 0.08 0.08 94 1007.2
20260510090003 43 0 0.0 0.0 0.00 0.08 0.08 94 1007.1
20260510085024 43 0 0.0 0.0 0.00 0.08 0.08 94 1006.9
20260510084003 42 0 0.0 0.0 0.00 0.08 0.08 94 1007.0
20260510083003 42 0 0.0 0.0 0.00 0.08 0.08 93 1007.1
20260510082003 42 0 0.0 0.0 0.00 0.08 0.08 93 1007.0
20260510081003 43 0 0.0 0.0 0.00 0.08 0.08 92 1006.9
20260510080024 43 0 0.0 0.0 0.00 0.08 0.08 92 1006.8
20260510075003 44 0 0.0 0.0 0.00 0.08 0.08 92 1006.7
20260510074003 44 0 0.0 0.0 0.00 0.08 0.08 91 1006.5
20260510073003 45 219 0.0 2.0 0.00 0.08 0.08 90 1006.3
20260510072003 47 219 1.0 2.0 0.00 0.08 0.08 91 1006.5
20260510071003 48 223 2.0 4.0 0.00 0.08 0.08 92 1006.8
20260510070003 48 226 2.0 5.0 0.00 0.08 0.08 92 1006.9
20260510065003 48 230 3.0 5.0 0.01 0.08 0.08 91 1007.0
20260510064024 48 226 3.0 6.0 0.02 0.08 0.08 91 1007.0
20260510063003 48 227 3.0 6.0 0.04 0.08 0.08 91 1006.9
20260510062003 49 228 3.0 7.0 0.05 0.08 0.08 91 1006.8
20260510061003 49 231 3.0 8.0 0.05 0.08 0.08 91 1006.8
20260510060003 49 228 3.0 7.0 0.05 0.08 0.08 91 1006.7
20260510055024 49 228 3.0 5.0 0.04 0.07 0.07 91 1006.9
20260510054024 49 229 3.0 5.0 0.03 0.06 0.06 90 1007.0
20260510053003 50 224 3.0 6.0 0.04 0.04 0.04 90 1007.1
20260510052003 50 232 3.0 5.0 0.03 0.03 0.03 89 1007.1
20260510051003 50 232 3.0 7.0 0.03 0.03 0.03 89 1007.0
20260510050003 51 223 3.0 6.0 0.03 0.03 0.03 88 1006.8
20260510045003 51 229 5.0 14.0 0.03 0.03 0.03 87 1006.9
20260510044003 51 231 3.0 6.0 0.03 0.03 0.03 87 1006.9
20260510043003 52 227 4.0 7.0 0.00 0.00 0.00 83 1006.5
20260510042003 52 232 4.0 11.0 0.00 0.00 0.00 82 1006.3
20260510041003 52 229 4.0 10.0 0.00 0.00 0.00 82 1006.2
20260510040003 52 226 5.0 9.0 0.00 0.00 0.00 82 1006.2
20260510035003 52 225 5.0 9.0 0.00 0.00 0.00 82 1006.3
20260510034003 51 225 4.0 8.0 0.00 0.00 0.00 82 1006.2
20260510033003 51 225 4.0 10.0 0.00 0.00 0.00 82 1005.9
20260510032003 51 224 4.0 10.0 0.00 0.00 0.00 82 1005.6
20260510031003 51 222 4.0 9.0 0.00 0.00 0.00 82 1006.0
20260510030024 51 227 4.0 11.0 0.00 0.00 0.00 83 1006.0
20260510025003 51 222 3.0 10.0 0.00 0.00 0.00 84 1005.9
20260510024003 50 233 3.0 7.0 0.00 0.00 0.00 87 1006.1
20260510023024 48 210 2.0 10.0 0.00 0.00 0.00 91 1006.1
20260510022003 45 0 0.0 0.0 0.00 0.00 0.00 91 1006.2
20260510021003 44 0 0.0 0.0 0.00 0.00 0.00 90 1006.3
20260510020003 44 252 1.0 2.0 0.00 0.00 0.00 90 1006.3
20260510015003 44 252 1.0 3.0 0.00 0.00 0.00 91 1006.5
20260510014003 44 252 1.0 3.0 0.00 0.00 0.00 90 1006.5
20260510013003 44 250 0.0 3.0 0.00 0.00 0.00 89 1006.3
20260510012024 44 0 0.0 0.0 0.00 0.00 0.00 89 1006.4
20260510011003 44 250 1.0 3.0 0.00 0.00 0.00 89 1006.2
20260510010003 44 250 1.0 3.0 0.00 0.00 0.00 88 1005.9
20260510005003 45 250 1.0 3.0 0.00 0.00 0.00 87 1005.8
20260510004003 46 242 0.0 2.0 0.00 0.00 0.00 86 1005.9
20260510003003 47 0 0.0 0.0 0.00 0.00 0.00 85 1006.0
20260510002003 48 242 0.0 1.0 0.00 0.00 0.00 83 1005.9
20260510001003 49 241 0.0 2.0 0.00 0.00 0.00 83 1005.9
20260510000003 50 241 0.0 2.0 0.00 0.00 0.00 82 1006.0
20260509235003 50 242 1.0 5.0 0.00 0.00 0.00 83 1006.3
20260509234003 50 235 1.0 3.0 0.00 0.00 0.00 82 1006.5
20260509233003 50 238 1.0 7.0 0.00 0.00 0.00 82 1006.3
20260509232003 50 239 1.0 5.0 0.00 0.00 0.00 82 1006.1
20260509231003 50 237 1.0 4.0 0.00 0.00 0.00 81 1006.2
20260509230003 50 233 1.0 8.0 0.00 0.00 0.00 81 1006.1
20260509225003 50 230 0.0 2.0 0.00 0.00 0.00 82 1006.1
20260509224003 50 240 2.0 7.0 0.00 0.00 0.00 81 1006.2
20260509223003 50 231 1.0 7.0 0.00 0.00 0.00 82 1006.3
20260509222003 50 235 2.0 8.0 0.00 0.00 0.00 81 1006.3
20260509221003 49 202 1.0 4.0 0.00 0.00 0.00 82 1006.1
20260509220003 49 233 1.0 5.0 0.00 0.00 0.00 82 1006.2
20260509215003 49 231 1.0 4.0 0.00 0.00 0.00 82 1006.3
20260509214003 49 133 0.0 4.0 0.00 0.00 0.00 83 1006.4
20260509213003 49 57 0.0 2.0 0.00 0.00 0.00 83 1006.6
20260509212003 49 247 2.0 5.0 0.00 0.00 0.00 83 1006.7
20260509211003 49 275 1.0 4.0 0.00 0.00 0.00 82 1006.6
20260509210003 50 236 1.0 4.0 0.00 0.00 0.00 82 1006.5
20260509205024 50 206 2.0 6.0 0.00 0.00 0.00 80 1006.6
20260509204003 50 234 1.0 3.0 0.00 0.00 0.00 78 1006.6
20260509203024 50 231 1.0 3.0 0.00 0.00 0.00 78 1006.8
20260509202024 50 237 1.0 5.0 0.00 0.00 0.00 78 1006.9
20260509201003 50 219 1.0 5.0 0.00 0.00 0.00 77 1006.9
20260509200003 51 227 2.0 8.0 0.00 0.00 0.00 76 1006.9
20260509195003 51 235 2.0 8.0 0.00 0.00 0.00 76 1007.0
20260509194003 51 229 4.0 10.0 0.00 0.00 0.00 75 1007.1
20260509193003 51 235 4.0 9.0 0.00 0.00 0.00 74 1007.0
20260509192003 52 213 3.0 8.0 0.00 0.00 0.00 74 1007.2
20260509191003 52 223 5.0 12.0 0.00 0.00 0.00 73 1007.1
20260509190003 52 232 4.0 10.0 0.00 0.00 0.00 72 1007.1
20260509185003 52 230 5.0 11.0 0.00 0.00 0.00 72 1007.2
20260509184024 52 234 6.0 14.0 0.00 0.00 0.00 71 1007.3
20260509183003 52 232 6.0 18.0 0.00 0.00 0.00 70 1007.2
20260509182003 52 230 5.0 13.0 0.00 0.00 0.00 70 1007.3
20260509181003 52 219 4.0 9.0 0.00 0.00 0.00 68 1007.3
20260509180003 53 214 3.0 10.0 0.00 0.00 0.00 67 1007.4
20260509175024 53 223 3.0 11.0 0.00 0.00 0.00 66 1007.6
20260509174003 52 232 5.0 15.0 0.00 0.00 0.00 68 1007.7
20260509173003 52 234 4.0 11.0 0.00 0.00 0.00 67 1007.7
20260509172024 52 212 4.0 9.0 0.00 0.00 0.00 68 1007.8
20260509171003 51 226 4.0 11.0 0.00 0.00 0.00 68 1007.9
20260509170003 52 229 6.0 13.0 0.00 0.00 0.00 68 1008.0
20260509165003 53 214 4.0 10.0 0.00 0.00 0.00 66 1008.0
20260509164003 53 217 4.0 11.0 0.00 0.00 0.00 65 1008.0
20260509163003 52 220 4.0 12.0 0.00 0.00 0.00 64 1008.2
20260509162003 52 221 3.0 7.0 0.00 0.00 0.00 66 1008.2
20260509161003 52 239 3.0 11.0 0.00 0.00 0.00 63 1008.4
20260509160003 52 233 3.0 8.0 0.00 0.00 0.00 66 1008.5
20260509155024 52 232 4.0 10.0 0.00 0.00 0.00 63 1008.7
20260509154003 51 232 6.0 14.0 0.00 0.00 0.00 64 1008.7
20260509153003 51 234 5.0 13.0 0.00 0.00 0.00 62 1008.9
20260509152003 51 234 3.0 9.0 0.00 0.00 0.00 57 1008.9
20260509151003 51 234 3.0 7.0 0.00 0.00 0.00 57 1009.0
20260509150024 51 242 3.0 8.0 0.00 0.00 0.00 58 1009.1
20260509145003 51 232 4.0 9.0 0.00 0.00 0.00 57 1009.1
20260509144003 50 228 5.0 12.0 0.00 0.00 0.00 54 1009.2
20260509143003 51 237 6.0 12.0 0.00 0.00 0.00 52 1009.1
20260509142003 51 232 5.0 12.0 0.00 0.00 0.00 50 1009.1
20260509141003 52 230 4.0 14.0 0.00 0.00 0.00 51 1009.0
20260509140003 51 234 5.0 15.0 0.00 0.00 0.00 49 1009.1
20260509135003 51 243 5.0 12.0 0.00 0.00 0.00 49 1009.2